Regional Weather Roundup
Issued by NWS Nashville, TN

Home | Current Version | Previous Version | Text Only | Print | Product List | Glossary On
Versions: 1 2 3 4 5 6 7 8 9 10 11 12 13 14 15 16 17 18 19 20 21 22 23 24 25 26 27 28 29 30 31 32 33 34 35 36 37 38 39 40 41 42 43 44 45 46 47 48 49 50
000
ASUS44 KOHX 260415
RWROHX
MIDDLE TENNESSEE HOURLY WEATHER ROUNDUP
NATIONAL WEATHER SERVICE NASHVILLE TN
1000 PM CST TUE NOV 25 2014

NOTE: "FAIR" INDICATES FEW OR NO CLOUDS BELOW 12,000 FEET WITH
NO SIGNIFICANT WEATHER AND/OR OBSTRUCTIONS TO VISIBILITY.

* THESE REPORTS ARE NOT UNDER NWS QUALITY CONTROL AND MAY NOT
  REPORT WEATHER SUCH AS PRECIPITATION AND FOG.


TNZ005>011-023>034-057-059-062>066-078-080-260500
...NORTHERN MIDDLE TENNESSEE...

CITY           SKY/WX    TMP DP  RH WIND       PRES   REMARKS
CLARKSVILLE    PTCLDY    35  28  75 NW3       30.18S
CROSSVILLE     CLOUDY    43  29  57 N6        30.10F
GALLATIN         N/A     39  30  70 N6        30.16S WCI  35
DICKSON        PTCLDY    32  25  74 CALM      30.15F
LEBANON        MOCLDY    39  29  68 CALM      30.14R
LIVINGSTON     CLOUDY    54  23  30 NE3       30.13R
NASHVILLE      MOCLDY    40  27  59 NW3       30.16F
WEST NASHVILLE   N/A     36  27  69 NW3       30.17S
PORTLAND         N/A     36  27  69 N3        30.15S
SMYRNA         CLOUDY    39  31  73 CALM      30.17F
SPARTA         CLEAR     39  28  65 CALM      30.12F
$$
TNZ056-058-060-061-075>077-079-093>097-260500
...SOUTHERN MIDDLE TENNESSEE...

CITY           SKY/WX    TMP DP  RH WIND       PRES   REMARKS
COLUMBIA       CLEAR     36  28  75 CALM      30.14F
LEWISBURG      MOCLDY    41  28  60 NW3       30.15F
MCMINNVILLE    PTCLDY    39  28  65 CALM      30.12F
MURFREESBORO   CLOUDY    41  28  60 N3        30.15S
SHELBYVILLE    CLEAR     39  30  70 N8G20     30.15S WCI  34
TULLAHOMA      CLEAR     39  27  60 N6        30.12F WCI  35
WINCHESTER     PTCLDY    43  30  61 NW6       30.11F
$$


...KEY TO REMARKS...
VSB - VISIBILITY IN MILES
WCI - WIND CHILL INDEX
HX  - HEAT INDEX



USA.gov is the U.S. government's official web portal to all federal, state and local government web resources and services.